Regional Weather Roundup
Issued by NWS Northern Indiana

Home | Current Version | Previous Version | Text Only | Print | Product List | Glossary Off
Versions: 1 2 3 4 5 6 7 8 9 10 11 12 13 14 15 16 17 18 19 20 21 22 23 24 25 26 27 28 29 30 31 32 33 34 35 36 37 38 39 40 41 42 43 44 45 46 47 48 49 50

000
ASUS43 KIWX 041700
RWRIWX

KIWX WEATHER ROUNDUP
NATIONAL WEATHER SERVICE NORTHERN INDIANA
100 PM EDT SAT JUL 04 2015

NOTE: "FAIR" INDICATES FEW OR NO CLOUDS BELOW 12,000 FEET WITH NO
SIGNIFICANT WEATHER AND/OR OBSTRUCTIONS TO VISIBILITY.

* THESE STATIONS ARE NOT UNDER NWS QUALITY CONTROL. THEY ALSO MAY NOT
  REPORT WEATHER SUCH AS PRECIPITATION OR FOG.

INZ001>027-041800-
NORTHERN INDIANA

CITY           SKY/WX    TMP DP  RH WIND       PRES   REMARKS
GARY*          MOSUNNY  N/A N/A N/A VRB5      30.02S
SOUTH BEND     SUNNY     75  57  53 SW5       30.03R
GOSHEN         SUNNY     74  57  55 N6        30.02S
ANGOLA*          N/A     77  70  78 CALM      30.02S
FORT WAYNE     PTSUNNY   75  58  55 S5        30.03R
PERU/GRISSOM   MOSUNNY   75  59  58 N6        30.02S

$$
INZ028>050-041800-
CENTRAL INDIANA

CITY           SKY/WX    TMP DP  RH WIND       PRES   REMARKS
LAFAYETTE      SUNNY     76  61  59 NW7       30.03R
KOKOMO*        SUNNY     75  59  57 CALM      30.03R
MUNCIE*        MOSUNNY   77  57  50 W5        30.03S
INDIANAPOLIS   MOSUNNY   77  57  50 SE5       30.02R

$$
MIZ043>046-050>051-056>058-064>065-071>073-077>080-041800-
SOUTHWEST LOWER MICHIGAN

CITY           SKY/WX    TMP DP  RH WIND       PRES   REMARKS
BATTLE CREEK   SUNNY     75  57  53 S5        30.02S
BENTON HARBOR  SUNNY     75  57  53 NW7       30.01S
COLDWATER*     SUNNY     73  54  51 CALM      30.01F
HILLSDALE*     MOSUNNY   74  54  49 NE5       30.02S
HOLLAND        SUNNY     76  58  53 SW6       30.01S
GRAND RAPIDS   PTSUNNY   77  55  46 NW5       30.00S
KALAMAZOO      SUNNY     77  54  44 CALM      30.02S
STURGIS*       SUNNY     73  52  46 N5        30.01F
THREE RIVERS*  FAIR      74  55  50 N3        30.02S

$$
OHZ001>008-015>018-024>025-041800-
NORTHWEST OHIO

CITY           SKY/WX    TMP DP  RH WIND       PRES   REMARKS
DEFIANCE       MOSUNNY   77  57  50 SW3       30.01S
FINDLAY        SUNNY     76  53  44 N5        30.00S
TOLEDO EXPRESS SUNNY     75  50  41 VRB3      30.00S
TOLEDO METCALF SUNNY     76  50  40 VRB3      30.01S
LIMA           SUNNY     74  56  53 CALM      30.02S

$$
AND FOR LAKE MICHIGAN COASTAL AND OPEN LAKE BUOY OBSERVATIONS

STATION/POSITION TEMP    WIND        PRES    VSBY  WAVE
                 AIR SEA DIR/SP/G                  HT/PER
                 (F)     (DEG/KT/KT) (MB)    (MI)  (FT/S)
CALUMET HARBOR    70      50/  6/  7   N/A
MICHIGAN CITY     68     250/  4/  4   N/A
BURNS HARBOR      69     350/  3/  3 1016.9S
SAINT JOSEPH      64     180/  6/  6   N/A
4 MI NW BRIDGMAN  64 64                N/A           0
MICHIGAN CITY     66 65  280/  2/  4   N/A           0

$$
&&


USA.gov is the U.S. government's official web portal to all federal, state and local government web resources and services.